When you browse on this site, cookies collect data to enhance your experience and personalize the content and advertising you see.
Visit our Privacy Policy to learn more. By continuing to use the site, you agree to this use of cookies and data.
  • Em Portugal
  • Lista de países
  • Para 7 dias
  • Temperatura da água
  • Mapas de satélite
  • Mapa do tempo
  • Widgets de tempo
  • user-avatar
    Iniciar Sessão

    Previsão horária em Kulikovka

    Hoje, 27 Junho, Quinta-feira

    Tempo Temperatura Precipitação Vento Pressão Humidade
    00:00 +14°C° 0 mm 2 m/s 746 mmHg 72%
    01:00 +13°C° 1.2 mm 3 m/s 746 mmHg 80%
    02:00 +12°C° 1.2 mm 4 m/s 745 mmHg 88%
    03:00 +12°C° 1.2 mm 4 m/s 745 mmHg 96%
    04:00 +12°C° 0.9 mm 5 m/s 744 mmHg 96%
    05:00 +13°C° 0.9 mm 6 m/s 744 mmHg 95%
    06:00 +13°C° 0.9 mm 6 m/s 743 mmHg 95%
    07:00 +13°C° 0.4 mm 5 m/s 743 mmHg 94%
    08:00 +14°C° 0.4 mm 4 m/s 743 mmHg 93%
    09:00 +15°C° 0.4 mm 2 m/s 742 mmHg 91%
    10:00 +16°C° 0 mm 2 m/s 742 mmHg 84%
    11:00 +18°C° 0 mm 2 m/s 742 mmHg 76%
    12:00 +19°C° 0 mm 2 m/s 742 mmHg 69%
    13:00 +20°C° 0.1 mm 2 m/s 741 mmHg 67%
    14:00 +21°C° 0.1 mm 1 m/s 741 mmHg 66%
    15:00 +21°C° 0.1 mm 1 m/s 741 mmHg 64%
    16:00 +21°C° 0 mm 1 m/s 740 mmHg 67%
    17:00 +20°C° 0 mm 2 m/s 740 mmHg 71%
    18:00 +19°C° 0 mm 3 m/s 739 mmHg 74%
    19:00 +18°C° 0 mm 4 m/s 739 mmHg 79%
    20:00 +15°C° 0 mm 5 m/s 739 mmHg 84%
    21:00 +13°C° 0 mm 6 m/s 738 mmHg 88%
    22:00 +11°C° 0.3 mm 6 m/s 737 mmHg 90%
    23:00 +11°C° 0.3 mm 6 m/s 737 mmHg 91%

    Amanhã, 28 Junho, Sexta-feira

    Tempo Temperatura Precipitação Vento Pressão Humidade
    00:00 +10°C° 0.3 mm 6 m/s 736 mmHg 92%
    01:00 +10°C° 1.6 mm 7 m/s 735 mmHg 94%
    02:00 +10°C° 1.6 mm 7 m/s 734 mmHg 95%
    03:00 +10°C° 1.6 mm 7 m/s 733 mmHg 96%
    04:00 +10°C° 4.4 mm 7 m/s 732 mmHg 97%
    05:00 +11°C° 4.4 mm 6 m/s 731 mmHg 98%
    06:00 +13°C° 4.4 mm 5 m/s 731 mmHg 98%
    07:00 +14°C° 2.1 mm 5 m/s 730 mmHg 98%
    08:00 +15°C° 2.1 mm 5 m/s 730 mmHg 97%
    09:00 +17°C° 2.1 mm 4 m/s 730 mmHg 97%
    10:00 +18°C° 0.9 mm 4 m/s 729 mmHg 95%
    11:00 +19°C° 0.9 mm 5 m/s 729 mmHg 93%
    12:00 +20°C° 0.9 mm 5 m/s 729 mmHg 92%
    13:00 +21°C° 0.7 mm 5 m/s 729 mmHg 88%
    14:00 +22°C° 0.7 mm 5 m/s 729 mmHg 85%
    15:00 +22°C° 0.7 mm 5 m/s 729 mmHg 82%
    16:00 +22°C° 0.2 mm 5 m/s 729 mmHg 82%
    17:00 +21°C° 0.2 mm 4 m/s 729 mmHg 83%
    18:00 +21°C° 0.2 mm 4 m/s 729 mmHg 83%
    19:00 +19°C° 0.2 mm 3 m/s 729 mmHg 87%
    20:00 +18°C° 0.2 mm 3 m/s 729 mmHg 90%
    21:00 +16°C° 0.2 mm 3 m/s 729 mmHg 94%
    22:00 +14°C° 0 mm 3 m/s 730 mmHg 94%
    23:00 +14°C° 0 mm 3 m/s 730 mmHg 95%

    Depois de amanhã, 29 Junho, Sábado

    Tempo Temperatura Precipitação Vento Pressão Humidade
    00:00 +13°C° 0 mm 3 m/s 730 mmHg 96%
    01:00 +13°C° 0 mm 3 m/s 730 mmHg 96%
    02:00 +12°C° 0 mm 3 m/s 730 mmHg 96%
    03:00 +12°C° 0 mm 3 m/s 730 mmHg 96%
    04:00 +12°C° 0 mm 4 m/s 730 mmHg 95%
    05:00 +13°C° 0 mm 4 m/s 729 mmHg 95%
    06:00 +13°C° 0 mm 5 m/s 729 mmHg 94%
    07:00 +14°C° 0.2 mm 5 m/s 729 mmHg 91%
    08:00 +14°C° 0.2 mm 6 m/s 729 mmHg 88%
    09:00 +14°C° 0.2 mm 6 m/s 729 mmHg 86%
    10:00 +14°C° 0.2 mm 6 m/s 730 mmHg 87%
    11:00 +12°C° 0.2 mm 7 m/s 730 mmHg 88%
    12:00 +12°C° 0.2 mm 7 m/s 730 mmHg 90%
    13:00 +14°C° 0.3 mm 7 m/s 731 mmHg 88%
    14:00 +14°C° 0.3 mm 7 m/s 731 mmHg 87%
    15:00 +15°C° 0.3 mm 7 m/s 731 mmHg 86%
    16:00 +14°C° 0.1 mm 7 m/s 732 mmHg 86%
    17:00 +14°C° 0.1 mm 7 m/s 732 mmHg 87%
    18:00 +14°C° 0.1 mm 7 m/s 733 mmHg 87%
    19:00 +13°C° 0 mm 6 m/s 733 mmHg 88%
    20:00 +13°C° 0 mm 6 m/s 734 mmHg 89%
    21:00 +11°C° 0 mm 6 m/s 735 mmHg 89%
    22:00 +11°C° 0 mm 6 m/s 735 mmHg 89%
    23:00 +10°C° 0 mm 5 m/s 735 mmHg 89%

    30 Junho, Domingo

    Tempo Temperatura Precipitação Vento Pressão Humidade
    00:00 +10°C° 0 mm 5 m/s 735 mmHg 88%
    01:00 +10°C° 0 mm 5 m/s 736 mmHg 88%
    02:00 +11°C° 0 mm 4 m/s 736 mmHg 88%
    03:00 +10°C° 0 mm 4 m/s 736 mmHg 88%
    04:00 +10°C° 0 mm 4 m/s 737 mmHg 88%
    05:00 +11°C° 0 mm 4 m/s 737 mmHg 88%
    06:00 +11°C° 0 mm 4 m/s 737 mmHg 88%
    07:00 +12°C° 0 mm 3 m/s 738 mmHg 85%
    08:00 +13°C° 0 mm 3 m/s 738 mmHg 81%
    09:00 +14°C° 0 mm 3 m/s 738 mmHg 78%
    10:00 +14°C° 0.1 mm 3 m/s 738 mmHg 77%
    11:00 +14°C° 0.1 mm 3 m/s 739 mmHg 76%
    12:00 +16°C° 0.1 mm 2 m/s 739 mmHg 75%
    13:00 +16°C° 0.1 mm 2 m/s 739 mmHg 73%
    14:00 +16°C° 0.1 mm 2 m/s 739 mmHg 72%
    15:00 +17°C° 0.1 mm 2 m/s 739 mmHg 70%
    16:00 +17°C° 0.1 mm 2 m/s 739 mmHg 71%
    17:00 +17°C° 0.1 mm 2 m/s 739 mmHg 72%
    18:00 +18°C° 0.1 mm 1 m/s 739 mmHg 73%
    19:00 +15°C° 0.1 mm 1 m/s 739 mmHg 78%
    20:00 +14°C° 0.1 mm 1 m/s 740 mmHg 83%
    21:00 +13°C° 0.1 mm 1 m/s 740 mmHg 88%
    22:00 +12°C° 0 mm 1 m/s 740 mmHg 90%
    23:00 +12°C° 0 mm 1 m/s 740 mmHg 92%

    1 Julho, Segunda-feira

    Tempo Temperatura Precipitação Vento Pressão Humidade
    00:00 +11°C° 0 mm 1 m/s 740 mmHg 94%
    01:00 +11°C° 0 mm 1 m/s 740 mmHg 95%
    02:00 +10°C° 0 mm 2 m/s 740 mmHg 96%
    03:00 +10°C° 0 mm 2 m/s 740 mmHg 97%
    04:00 +12°C° 0 mm 2 m/s 740 mmHg 96%
    05:00 +12°C° 0 mm 2 m/s 741 mmHg 95%
    06:00 +12°C° 0 mm 3 m/s 741 mmHg 93%
    07:00 +13°C° 0 mm 3 m/s 741 mmHg 90%
    08:00 +14°C° 0 mm 3 m/s 741 mmHg 86%
    09:00 +15°C° 0 mm 4 m/s 741 mmHg 83%
    10:00 +17°C° 0.1 mm 3 m/s 741 mmHg 79%
    11:00 +18°C° 0.1 mm 3 m/s 741 mmHg 75%
    12:00 +19°C° 0.1 mm 3 m/s 741 mmHg 72%
    13:00 +19°C° 0.3 mm 3 m/s 741 mmHg 71%
    14:00 +20°C° 0.3 mm 3 m/s 740 mmHg 71%
    15:00 +20°C° 0.3 mm 3 m/s 740 mmHg 71%
    16:00 +20°C° 0.2 mm 3 m/s 740 mmHg 74%
    17:00 +19°C° 0.2 mm 3 m/s 740 mmHg 76%
    18:00 +19°C° 0.2 mm 3 m/s 740 mmHg 79%
    19:00 +18°C° 0 mm 3 m/s 740 mmHg 83%
    20:00 +16°C° 0 mm 3 m/s 740 mmHg 88%
    21:00 +15°C° 0 mm 2 m/s 740 mmHg 92%
    22:00 +15°C° 0 mm 2 m/s 740 mmHg 92%
    23:00 +13°C° 0 mm 3 m/s 740 mmHg 93%

    2 Julho, Terça-feira

    Tempo Temperatura Precipitação Vento Pressão Humidade
    00:00 +13°C° 0 mm 3 m/s 739 mmHg 93%
    01:00 +13°C° 0 mm 3 m/s 739 mmHg 93%
    02:00 +12°C° 0 mm 3 m/s 739 mmHg 93%
    03:00 +12°C° 0 mm 3 m/s 739 mmHg 93%
    04:00 +13°C° 0 mm 3 m/s 739 mmHg 92%
    05:00 +13°C° 0 mm 4 m/s 738 mmHg 90%
    06:00 +14°C° 0 mm 4 m/s 738 mmHg 89%
    07:00 +15°C° 0 mm 4 m/s 738 mmHg 85%
    08:00 +16°C° 0 mm 5 m/s 737 mmHg 80%
    09:00 +19°C° 0 mm 5 m/s 737 mmHg 76%
    10:00 +20°C° 0 mm 6 m/s 737 mmHg 74%
    11:00 +20°C° 0 mm 6 m/s 736 mmHg 71%
    12:00 +21°C° 0 mm 7 m/s 736 mmHg 69%
    13:00 +21°C° 0.1 mm 7 m/s 735 mmHg 70%
    14:00 +21°C° 0.1 mm 7 m/s 735 mmHg 70%
    15:00 +21°C° 0.1 mm 7 m/s 735 mmHg 71%
    16:00 +20°C° 0.1 mm 6 m/s 735 mmHg 77%
    17:00 +19°C° 0.1 mm 5 m/s 734 mmHg 82%
    18:00 +18°C° 0.1 mm 4 m/s 734 mmHg 88%
    19:00 +18°C° 0 mm 4 m/s 734 mmHg 89%
    20:00 +17°C° 0 mm 4 m/s 734 mmHg 90%
    21:00 +17°C° 0 mm 4 m/s 734 mmHg 91%
    22:00 +17°C° 0 mm 4 m/s 734 mmHg 92%
    23:00 +17°C° 0 mm 3 m/s 734 mmHg 92%
    Mostrar mais